Regional Weather Roundup
Issued by NWS Upton, NY

Current Version | Previous Version | Graphics & Text | Print | Product List | Glossary Off
Versions: 1 2 3 4 5 6 7 8 9 10 11 12 13 14 15 16 17 18 19 20 21 22 23 24 25 26 27
000 ASUS41 KOKX 250608 RWROKX REGIONAL WEATHER ROUNDUP NATIONAL WEATHER SERVICE NEW YORK NY 200 AM EDT SAT MAR 25 2017 NOTE: "FAIR" INDICATES FEW OR NO CLOUDS BELOW 12,000 FEET WITH NO SIGNIFICANT WEATHER AND/OR OBSTRUCTIONS TO VISIBILITY. NYZ071-072-176-178-NJZ106-104-250700- NEW YORK CITY METRO AREA CITY SKY/WX TMP DP RH WIND PRES REMARKS Central Park MOCLDY 54 34 46 SW13G21 30.10F Wall St Helipt CLOUDY 51 34 52 W10 30.10F LaGuardia APRT CLOUDY 55 33 43 SW10 30.08F Kennedy INTL CLOUDY 45 40 82 S13 30.11F Breezy Point N/A 43 N/A N/A S5 N/A Newark/Liberty MOCLDY 50 33 52 SW9 30.09F Teterboro MOCLDY 48 34 58 SW6 30.08F $$ NYZ177-179-078>081-250700- LONG ISLAND NEW YORK CITY SKY/WX TMP DP RH WIND PRES REMARKS Jones Beach N/A 43 N/A N/A SW10G17 N/A Matinecock PT NOT AVBL Farmingdale CLOUDY 47 38 71 SW9 30.09F MacArthur/ISP PTCLDY 46 38 73 SW9 30.09F Shirley PTCLDY 45 39 79 SW6 30.11S Westhampton PTCLDY 44 38 79 SW8 30.11S East Hampton N/A 43 38 80 SW7 30.09F Montauk N/A 47 38 71 SW8 30.09F $$ NYZ052-065-067-250700- HUDSON VALLEY CITY SKY/WX TMP DP RH WIND PRES REMARKS White Plains CLOUDY 50 32 50 W5 30.07F Newburgh PTCLDY 41 36 81 CALM 30.07F Montgomery CLOUDY 34 31 88 CALM 30.06F Poughkeepsie CLOUDY 34 30 85 SE3 30.06F Albany LGT RAIN 39 33 79 W3 30.10R $$ NJZ001-105-106-008-010-013-015-019>022-104-250700- NEW JERSEY CITY SKY/WX TMP DP RH WIND PRES REMARKS Newark/Liberty MOCLDY 50 33 52 SW9 30.09F Teterboro MOCLDY 48 34 58 SW6 30.08F Caldwell CLOUDY 49 33 54 SW5 30.09F Somerville CLOUDY 40 34 79 CALM 30.10F Linden N/A 51 32 49 CALM 30.10 Sussex MOCLDY 37 32 82 CALM 30.08S Andover N/A 47 34 60 S6 30.07F Trenton PTCLDY 47 33 58 SW6 30.11F Millville MOCLDY 56 47 71 SW6 30.15F Atlantic City PTCLDY 56 44 64 SW9 30.16F Wrightstown MOCLDY 48 37 66 SW7 30.10F Toms River PTCLDY 45 38 76 SW7 30.14F Belmar NOT AVBL $$ PAZ047>061-062-071-250700- EASTERN PENNSYLVANIA CITY SKY/WX TMP DP RH WIND PRES REMARKS Philadelphia MOCLDY 48 37 65 S7 30.14F Allentown MOCLDY 40 33 76 NW3 30.11F Scranton PTCLDY 46 39 76 S3 30.07R $$ CTZ002-004>006-009-010-012-RIZ004-006-007-MAZ004-011-015-250700- SOUTHERN NEW ENGLAND IN CT CITY SKY/WX TMP DP RH WIND PRES REMARKS Bradley INTL CLOUDY 39 32 76 S3 30.05F Hartford CLOUDY 40 33 76 S5 30.06F Danbury CLOUDY 38 33 82 CALM 30.07F Wtrbury/Oxford CLOUDY 43 30 61 CALM 30.07S Bridgeport MOCLDY 42 35 76 NE3 30.09F Meriden PTCLDY 38 33 82 CALM 30.07F New Haven CLOUDY 38 33 82 S5 30.09F WCI 34 Chester NOT AVBL Groton CLOUDY 43 37 79 SW3 30.08F Wilimantic CLOUDY 36 31 82 NE3 30.07F IN RI CITY SKY/WX TMP DP RH WIND PRES REMARKS Providence CLOUDY 45 34 65 SW5 30.07F Block Island CLOUDY 43 39 86 SW14 30.09F Westerly CLOUDY 43 37 79 CALM 30.09F IN MA CITY SKY/WX TMP DP RH WIND PRES REMARKS Boston CLOUDY 46 33 60 W5 30.07R Worcester CLOUDY 42 31 64 W10 30.03S Westfield PTCLDY 33 30 88 N8 30.06S WCI 26 Provincetown CLOUDY 41 37 86 SW10 30.07F Nantucket CLOUDY 42 38 85 SW20 30.08F $$ ANZ330-335-338-340-345-350-353-355-250700- COASTAL MARINE OBSERVATIONS STATION/POSITION TIME SKY/WX TEMP WIND PRES VSBY WAVE AIR SEA DIR/SP/G HT/PER (UTC) (F) (DEG/KT/KT) (MB) (MI) (FT/S) NY HARB ENTRANCE 0450 45 42 210/ 6/ 8 1020.8 4/ 7 20 S FIRE ISLAND 0550 44 40 210/ 14/ 16 1019.9 6/ 7 GREAT SOUTH BAY NOT AVBL 23 SSW MONTAUK P 0450 46 43 1019.1 6/ 7 15 E BARNEGAT LI 0530 42 N/A 5/ 6 HUDSON CANYON 0450 49 45 220/ 17/ 19 1022.5 8/ 7 KINGS POINT 0548 48 39 1018.6 EXECUTION ROCKS NOT AVBL CENTRAL LI SOUND 0530 40 CALM / 2 N/A 1 EASTERN LI SOUND NOT AVBL ROBBINS REEF 0548 52 240/ 11/ 13 1019.2 $$ >>>>>>>>>>>>>>>>>>>>>>>>>>>> KEY <<<<<<<<<<<<<<<<<<<<<<<<<<< > < > SKY/WX - Sky Condition/Present Weather < > TMP - Temperature in Fahrenheit < > DP - Dew Point in Fahrenheit < > RH - Relative Humidity in Percent < > WIND - Direction (from) and Speed in MPH < > PRES - Mean Sea Level Pressure (inches of Hg) < > WCI - Wind Chill Index < > VSB - VISIBILITY IN MILES < > HX - HEAT INDEX < > TC - TEMPERATURE IN CELSIUS < > VRB - VARIABLE WIND DIRECTION < > < >>>>>>>>>>>>>>>>>>>>>>>>>>>> KEY <<<<<<<<<<<<<<<<<<<<<<<<<<<

USA.gov is the U.S. government's official web portal to all federal, state and local government web resources and services.